Weather in Voskresenskoe

Ukraine / Mykolaiv District     47°00′53″N   32°08′34″E
temp.,
°C
wind,
m/s
gust,
m/s
humid.,
%
clouds,
%
prec.,
mm/h
press.,
hPa
HPBL,
m
14 june, mon
mon1400:00+16sw1292100 0.0 100835
03:00+15wnw229584 0.6 1008102
06:00+15ne129543 0.1 100885
09:00+20sse577499 2.1 1009683
12:00+22sse6963100 1.3 10101393
15:00+20sse5107598 1.8 1010600
18:00+22se466231 0.0 1010682
21:00+17ene35855 0.0 101174
15 june, tue
tue1500:00+17ene239195 1.2 101277
03:00+15ne339169 1.2 101130
06:00+16nne358946 0.0 1011105
09:00+22ne586762 0.0 1011544
12:00+27ene684647 0.0 10102204
15:00+27ne5846100 0.0 1008907
18:00+20sse71084100 4.1 1009411
21:00+17n349278 8.4 100988
16 june, wed
wed1600:00+16ene1296100 3.4 100939
03:00+16e2295100 4.4 100918
06:00+16nnw0094100 0.0 100922
09:00+20s2179100 0.0 1010482
12:00+24e1163100 0.6 10101045
15:00+24s226296 2.6 10101098
18:00+23se2369100 1.6 1010387
21:00+16n2393100 7.3 1012131
17 june, thu
thu1700:00+17nne2495100 0.1 1011130
03:00+16nne35963 0.1 1012109
06:00+17nne239478 0.1 101298
09:00+20ne3481100 0.1 1012460
12:00+23ene5672100 0.6 10141069
15:00+24e4567100 1.8 1013898
18:00+24e4572100 1.2 1014403
21:00+19nnw3694100 5.4 1015192
18 june, fri
fri1800:00+19ene4696100 0.3 1015353
03:00+18ene3596100 0.4 1015146
06:00+18ene4897100 0.0 1016306
09:00+20e578782 0.2 1016608
12:00+23e6775100 2.8 10171058
15:00+22ene798086 6.2 1017815
18:00+23ene577387 1.4 1017888
21:00+20e51183100 1.9 1018317